owner,sensor,date,latitude,longitude,vertical_datum,wind_speed,wind_to_direction,wind_speed_of_gust,qcFlag 
TCOON,ioos:station:TCOON:031:1,2013-11-01T00:00:00Z,28.4073,-96.7122,0.0,1.9,58.0,3.0,'11111222,11111222,11111222' 
TCOON,ioos:station:TCOON:031:1,2013-11-01T00:06:00Z,28.4073,-96.7122,0.0,1.9,59.0,2.6,'11111222,11111222,11111222' 
TCOON,ioos:station:TCOON:031:1,2013-11-01T00:12:00Z,28.4073,-96.7122,0.0,1.5,52.0,2.1,'11111222,11111222,11111222' 
TCOON,ioos:station:TCOON:031:1,2013-11-01T00:18:00Z,28.4073,-96.7122,0.0,1.4,38.0,2.0,'11111222,11111222,11111222' 
TCOON,ioos:station:TCOON:031:1,2013-11-01T00:24:00Z,28.4073,-96.7122,0.0,1.6,40.0,2.4,'11111222,11111222,11111222' 
TCOON,ioos:station:TCOON:031:1,2013-11-01T00:30:00Z,28.4073,-96.7122,0.0,1.5,44.0,2.1,'11111222,11111222,11111222' 
TCOON,ioos:station:TCOON:031:1,2013-11-01T00:36:00Z,28.4073,-96.7122,0.0,1.5,50.0,2.1,'1111122,1111122,1111122' 
TCOON,ioos:station:TCOON:031:1,2013-11-01T00:42:00Z,28.4073,-96.7122,0.0,1.1,50.0,2.0,'11111222,11111222,11111222' 
TCOON,ioos:station:TCOON:031:1,2013-11-01T00:48:00Z,28.4073,-96.7122,0.0,1.2,52.0,1.8,'11111222,11111222,11111222' 
TCOON,ioos:station:TCOON:031:1,2013-11-01T00:54:00Z,28.4073,-96.7122,0.0,1.5,40.0,2.1,'1111122,1111122,1111122' 
TCOON,ioos:station:TCOON:031:1,2013-11-01T01:00:00Z,28.4073,-96.7122,0.0,1.4,47.0,1.9,'11111222,11111222,11111222' 
TCOON,ioos:station:TCOON:031:1,2013-11-01T01:06:00Z,28.4073,-96.7122,0.0,1.5,27.0,2.0,'11111222,11111222,11111222' 
TCOON,ioos:station:TCOON:031:1,2013-11-01T01:12:00Z,28.4073,-96.7122,0.0,1.5,51.0,2.0,'11111222,11111222,11111222' 
TCOON,ioos:station:TCOON:031:1,2013-11-01T01:18:00Z,28.4073,-96.7122,0.0,1.3,53.0,2.0,'11111222,11111222,11111222' 
TCOON,ioos:station:TCOON:031:1,2013-11-01T01:24:00Z,28.4073,-96.7122,0.0,1.5,50.0,1.9,'11111222,11111222,11111222' 
TCOON,ioos:station:TCOON:031:1,2013-11-01T01:30:00Z,28.4073,-96.7122,0.0,1.4,34.0,1.8,'11111222,11111222,11111222' 
TCOON,ioos:station:TCOON:031:1,2013-11-01T01:36:00Z,28.4073,-96.7122,0.0,1.5,26.0,1.9,'11111222,11111222,11111222' 
TCOON,ioos:station:TCOON:031:1,2013-11-01T01:42:00Z,28.4073,-96.7122,0.0,1.4,26.0,2.2,'11111222,11111222,11111222' 
TCOON,ioos:station:TCOON:031:1,2013-11-01T01:48:00Z,28.4073,-96.7122,0.0,1.0,20.0,2.1,'1111122,1111122,1111122' 
TCOON,ioos:station:TCOON:031:1,2013-11-01T01:54:00Z,28.4073,-96.7122,0.0,1.6,19.0,2.1,'11111222,11111222,11111222' 
TCOON,ioos:station:TCOON:031:1,2013-11-01T02:00:00Z,28.4073,-96.7122,0.0,1.2,26.0,1.8,'11111222,11111222,11111222' 
TCOON,ioos:station:TCOON:031:1,2013-11-01T02:06:00Z,28.4073,-96.7122,0.0,1.2,31.0,1.8,'11111222,11111222,11111222' 
TCOON,ioos:station:TCOON:031:1,2013-11-01T02:12:00Z,28.4073,-96.7122,0.0,1.6,16.0,1.9,'11111222,11111222,11111222' 
TCOON,ioos:station:TCOON:031:1,2013-11-01T02:18:00Z,28.4073,-96.7122,0.0,1.4,16.0,1.7,'11111222,11111222,11111222' 
TCOON,ioos:station:TCOON:031:1,2013-11-01T02:24:00Z,28.4073,-96.7122,0.0,1.0,26.0,1.6,'11111222,11111222,11111222' 
TCOON,ioos:station:TCOON:031:1,2013-11-01T02:30:00Z,28.4073,-96.7122,0.0,1.3,33.0,1.7,'11111222,11111222,11111222' 
TCOON,ioos:station:TCOON:031:1,2013-11-01T02:36:00Z,28.4073,-96.7122,0.0,1.5,20.0,2.1,'1111122,1111122,1111122' 
TCOON,ioos:station:TCOON:031:1,2013-11-01T02:42:00Z,28.4073,-96.7122,0.0,0.9,27.0,1.7,'11111222,11111222,11111222' 
TCOON,ioos:station:TCOON:031:1,2013-11-01T02:48:00Z,28.4073,-96.7122,0.0,1.1,37.0,1.4,'11111222,11111222,11111222' 
TCOON,ioos:station:TCOON:031:1,2013-11-01T02:54:00Z,28.4073,-96.7122,0.0,0.8,44.0,1.3,'11111222,11111222,11111222' 
TCOON,ioos:station:TCOON:031:1,2013-11-01T03:00:00Z,28.4073,-96.7122,0.0,0.9,35.0,1.4,'11111222,11111222,11111222' 
TCOON,ioos:station:TCOON:031:1,2013-11-01T03:06:00Z,28.4073,-96.7122,0.0,1.2,40.0,1.5,'11111222,11111222,11111222' 
TCOON,ioos:station:TCOON:031:1,2013-11-01T03:12:00Z,28.4073,-96.7122,0.0,1.2,42.0,1.6,'11111222,11111222,11111222' 
TCOON,ioos:station:TCOON:031:1,2013-11-01T03:18:00Z,28.4073,-96.7122,0.0,1.2,40.0,1.9,'11111222,11111222,11111222' 
TCOON,ioos:station:TCOON:031:1,2013-11-01T03:24:00Z,28.4073,-96.7122,0.0,1.5,53.0,1.9,'11111222,11111222,11111222' 
TCOON,ioos:station:TCOON:031:1,2013-11-01T03:30:00Z,28.4073,-96.7122,0.0,1.2,43.0,1.9,'11111222,11111222,11111222' 
TCOON,ioos:station:TCOON:031:1,2013-11-01T03:36:00Z,28.4073,-96.7122,0.0,1.4,54.0,1.9,'11111222,11111222,11111222' 
TCOON,ioos:station:TCOON:031:1,2013-11-01T03:42:00Z,28.4073,-96.7122,0.0,1.5,51.0,1.9,'11111222,11111222,11111222' 
TCOON,ioos:station:TCOON:031:1,2013-11-01T03:48:00Z,28.4073,-96.7122,0.0,1.5,40.0,2.1,'1111122,1111122,1111122' 
TCOON,ioos:station:TCOON:031:1,2013-11-01T03:54:00Z,28.4073,-96.7122,0.0,1.6,45.0,2.2,'11111222,11111222,11111222' 
TCOON,ioos:station:TCOON:031:1,2013-11-01T04:00:00Z,28.4073,-96.7122,0.0,1.4,53.0,2.1,'11111222,11111222,11111222' 
TCOON,ioos:station:TCOON:031:1,2013-11-01T04:06:00Z,28.4073,-96.7122,0.0,1.2,47.0,1.9,'11111222,11111222,11111222' 
TCOON,ioos:station:TCOON:031:1,2013-11-01T04:12:00Z,28.4073,-96.7122,0.0,1.2,46.0,1.8,'11111222,11111222,11111222' 
TCOON,ioos:station:TCOON:031:1,2013-11-01T04:18:00Z,28.4073,-96.7122,0.0,1.0,45.0,1.4,'11111222,11111222,11111222' 
TCOON,ioos:station:TCOON:031:1,2013-11-01T04:24:00Z,28.4073,-96.7122,0.0,1.5,50.0,1.5,'1111122,1111122,1111122' 
TCOON,ioos:station:TCOON:031:1,2013-11-01T04:30:00Z,28.4073,-96.7122,0.0,1.4,35.0,1.7,'11111222,11111222,11111222' 
TCOON,ioos:station:TCOON:031:1,2013-11-01T04:36:00Z,28.4073,-96.7122,0.0,1.0,48.0,1.5,'11111222,11111222,11111222' 
TCOON,ioos:station:TCOON:031:1,2013-11-01T04:42:00Z,28.4073,-96.7122,0.0,1.1,40.0,1.5,'11111222,11111222,11111222' 
TCOON,ioos:station:TCOON:031:1,2013-11-01T04:48:00Z,28.4073,-96.7122,0.0,1.4,37.0,2.0,'11111222,11111222,11111222' 
TCOON,ioos:station:TCOON:031:1,2013-11-01T04:54:00Z,28.4073,-96.7122,0.0,1.2,23.0,1.6,'11111222,11111222,11111222' 
TCOON,ioos:station:TCOON:031:1,2013-11-01T05:00:00Z,28.4073,-96.7122,0.0,0.7,15.0,1.2,'11111222,11111222,11111222' 
TCOON,ioos:station:TCOON:031:1,2013-11-01T05:06:00Z,28.4073,-96.7122,0.0,0.8,29.0,1.0,'11111222,11111222,11111222' 
TCOON,ioos:station:TCOON:031:1,2013-11-01T05:12:00Z,28.4073,-96.7122,0.0,1.4,355.0,1.5,'11111222,11111222,11111222' 
TCOON,ioos:station:TCOON:031:1,2013-11-01T05:18:00Z,28.4073,-96.7122,0.0,1.3,5.0,1.5,'11111222,11111222,11111222' 
TCOON,ioos:station:TCOON:031:1,2013-11-01T05:24:00Z,28.4073,-96.7122,0.0,1.1,3.0,1.4,'11111222,11111222,11111222' 
TCOON,ioos:station:TCOON:031:1,2013-11-01T05:30:00Z,28.4073,-96.7122,0.0,1.3,9.0,1.5,'11111222,11111222,11111222' 
TCOON,ioos:station:TCOON:031:1,2013-11-01T05:36:00Z,28.4073,-96.7122,0.0,1.5,360.0,2.1,'1111122,1111122,1111122' 
TCOON,ioos:station:TCOON:031:1,2013-11-01T05:42:00Z,28.4073,-96.7122,0.0,1.5,2.0,1.9,'11111222,11111222,11111222' 
TCOON,ioos:station:TCOON:031:1,2013-11-01T05:48:00Z,28.4073,-96.7122,0.0,1.0,360.0,1.5,'1111122,1111122,1111122' 
TCOON,ioos:station:TCOON:031:1,2013-11-01T05:54:00Z,28.4073,-96.7122,0.0,1.6,340.0,1.8,'11111222,11111222,11111222' 
TCOON,ioos:station:TCOON:031:1,2013-11-01T06:00:00Z,28.4073,-96.7122,0.0,1.5,354.0,1.9,'11111222,11111222,11111222' 
TCOON,ioos:station:TCOON:031:1,2013-11-01T06:06:00Z,28.4073,-96.7122,0.0,1.5,6.0,1.8,'11111222,11111222,11111222' 
TCOON,ioos:station:TCOON:031:1,2013-11-01T06:12:00Z,28.4073,-96.7122,0.0,1.5,12.0,1.8,'11111222,11111222,11111222' 
TCOON,ioos:station:TCOON:031:1,2013-11-01T06:18:00Z,28.4073,-96.7122,0.0,1.8,16.0,2.1,'11111222,11111222,11111222' 
TCOON,ioos:station:TCOON:031:1,2013-11-01T06:24:00Z,28.4073,-96.7122,0.0,1.7,24.0,2.3,'11111222,11111222,11111222' 
TCOON,ioos:station:TCOON:031:1,2013-11-01T06:30:00Z,28.4073,-96.7122,0.0,1.7,25.0,2.2,'11111222,11111222,11111222' 
TCOON,ioos:station:TCOON:031:1,2013-11-01T06:36:00Z,28.4073,-96.7122,0.0,1.7,27.0,2.0,'11111222,11111222,11111222' 
TCOON,ioos:station:TCOON:031:1,2013-11-01T06:42:00Z,28.4073,-96.7122,0.0,2.1,30.0,2.6,'1111122,1111122,1111122' 
TCOON,ioos:station:TCOON:031:1,2013-11-01T06:48:00Z,28.4073,-96.7122,0.0,2.1,34.0,3.0,'11111222,11111222,11111222' 
TCOON,ioos:station:TCOON:031:1,2013-11-01T06:54:00Z,28.4073,-96.7122,0.0,1.8,37.0,2.4,'11111222,11111222,11111222' 
TCOON,ioos:station:TCOON:031:1,2013-11-01T07:00:00Z,28.4073,-96.7122,0.0,1.8,35.0,2.7,'11111222,11111222,11111222' 
TCOON,ioos:station:TCOON:031:1,2013-11-01T07:06:00Z,28.4073,-96.7122,0.0,1.9,42.0,2.5,'11111222,11111222,11111222' 
TCOON,ioos:station:TCOON:031:1,2013-11-01T07:12:00Z,28.4073,-96.7122,0.0,1.8,45.0,2.6,'11111222,11111222,11111222' 
TCOON,ioos:station:TCOON:031:1,2013-11-01T07:18:00Z,28.4073,-96.7122,0.0,1.6,51.0,2.5,'11111222,11111222,11111222' 
TCOON,ioos:station:TCOON:031:1,2013-11-01T07:24:00Z,28.4073,-96.7122,0.0,2.1,55.0,2.7,'11111222,11111222,11111222' 
TCOON,ioos:station:TCOON:031:1,2013-11-01T07:30:00Z,28.4073,-96.7122,0.0,2.1,48.0,2.9,'11111222,11111222,11111222' 
TCOON,ioos:station:TCOON:031:1,2013-11-01T07:36:00Z,28.4073,-96.7122,0.0,2.1,47.0,2.9,'11111222,11111222,11111222' 
TCOON,ioos:station:TCOON:031:1,2013-11-01T07:42:00Z,28.4073,-96.7122,0.0,2.1,49.0,3.3,'11111222,11111222,11111222' 
TCOON,ioos:station:TCOON:031:1,2013-11-01T07:48:00Z,28.4073,-96.7122,0.0,2.6,50.0,3.1,'1111122,1111122,1111122' 
TCOON,ioos:station:TCOON:031:1,2013-11-01T07:54:00Z,28.4073,-96.7122,0.0,2.2,45.0,3.2,'11111222,11111222,11111222' 
TCOON,ioos:station:TCOON:031:1,2013-11-01T08:00:00Z,28.4073,-96.7122,0.0,2.0,48.0,3.0,'11111222,11111222,11111222' 
TCOON,ioos:station:TCOON:031:1,2013-11-01T08:06:00Z,28.4073,-96.7122,0.0,2.1,55.0,2.7,'11111222,11111222,11111222' 
TCOON,ioos:station:TCOON:031:1,2013-11-01T08:12:00Z,28.4073,-96.7122,0.0,1.7,52.0,2.7,'11111222,11111222,11111222' 
TCOON,ioos:station:TCOON:031:1,2013-11-01T08:18:00Z,28.4073,-96.7122,0.0,1.4,48.0,2.6,'11111222,11111222,11111222' 
TCOON,ioos:station:TCOON:031:1,2013-11-01T08:24:00Z,28.4073,-96.7122,0.0,1.7,43.0,2.5,'11111222,11111222,11111222' 
TCOON,ioos:station:TCOON:031:1,2013-11-01T08:30:00Z,28.4073,-96.7122,0.0,1.7,55.0,2.4,'11111222,11111222,11111222' 
TCOON,ioos:station:TCOON:031:1,2013-11-01T08:36:00Z,28.4073,-96.7122,0.0,1.5,50.0,2.1,'1111122,1111122,1111122' 
TCOON,ioos:station:TCOON:031:1,2013-11-01T08:42:00Z,28.4073,-96.7122,0.0,1.3,57.0,2.0,'11111222,11111222,11111222' 
TCOON,ioos:station:TCOON:031:1,2013-11-01T08:48:00Z,28.4073,-96.7122,0.0,1.5,70.0,2.1,'1111122,1111122,1111122' 
TCOON,ioos:station:TCOON:031:1,2013-11-01T08:54:00Z,28.4073,-96.7122,0.0,1.4,73.0,1.7,'11111222,11111222,11111222' 
TCOON,ioos:station:TCOON:031:1,2013-11-01T09:00:00Z,28.4073,-96.7122,0.0,1.7,91.0,2.2,'11111222,11111222,11111222' 
TCOON,ioos:station:TCOON:031:1,2013-11-01T09:06:00Z,28.4073,-96.7122,0.0,1.4,84.0,2.4,'11111222,11111222,11111222' 
TCOON,ioos:station:TCOON:031:1,2013-11-01T09:12:00Z,28.4073,-96.7122,0.0,1.4,70.0,2.0,'11111222,11111222,11111222' 
TCOON,ioos:station:TCOON:031:1,2013-11-01T09:18:00Z,28.4073,-96.7122,0.0,1.8,59.0,2.3,'11111222,11111222,11111222' 
TCOON,ioos:station:TCOON:031:1,2013-11-01T09:24:00Z,28.4073,-96.7122,0.0,1.3,76.0,2.2,'11111222,11111222,11111222' 
TCOON,ioos:station:TCOON:031:1,2013-11-01T09:30:00Z,28.4073,-96.7122,0.0,1.9,91.0,2.4,'11111222,11111222,11111222' 
TCOON,ioos:station:TCOON:031:1,2013-11-01T09:36:00Z,28.4073,-96.7122,0.0,2.3,65.0,2.7,'11111222,11111222,11111222' 
TCOON,ioos:station:TCOON:031:1,2013-11-01T09:42:00Z,28.4073,-96.7122,0.0,2.4,66.0,3.0,'11111222,11111222,11111222' 
TCOON,ioos:station:TCOON:031:1,2013-11-01T09:48:00Z,28.4073,-96.7122,0.0,2.3,56.0,2.9,'11111222,11111222,11111222' 
TCOON,ioos:station:TCOON:031:1,2013-11-01T09:54:00Z,28.4073,-96.7122,0.0,1.8,64.0,2.7,'11111222,11111222,11111222' 
TCOON,ioos:station:TCOON:031:1,2013-11-01T10:00:00Z,28.4073,-96.7122,0.0,2.0,56.0,2.5,'11111222,11111222,11111222' 
TCOON,ioos:station:TCOON:031:1,2013-11-01T10:06:00Z,28.4073,-96.7122,0.0,1.4,73.0,2.5,'11111222,11111222,11111222' 
TCOON,ioos:station:TCOON:031:1,2013-11-01T10:12:00Z,28.4073,-96.7122,0.0,1.8,69.0,2.4,'11111222,11111222,11111222' 
TCOON,ioos:station:TCOON:031:1,2013-11-01T10:18:00Z,28.4073,-96.7122,0.0,1.7,60.0,2.2,'11111222,11111222,11111222' 
TCOON,ioos:station:TCOON:031:1,2013-11-01T10:24:00Z,28.4073,-96.7122,0.0,1.7,67.0,2.5,'11111222,11111222,11111222' 
TCOON,ioos:station:TCOON:031:1,2013-11-01T10:30:00Z,28.4073,-96.7122,0.0,1.7,69.0,2.3,'11111222,11111222,11111222' 
TCOON,ioos:station:TCOON:031:1,2013-11-01T10:36:00Z,28.4073,-96.7122,0.0,1.5,70.0,2.6,'1111122,1111122,1111122' 
TCOON,ioos:station:TCOON:031:1,2013-11-01T10:42:00Z,28.4073,-96.7122,0.0,1.2,80.0,1.8,'11111222,11111222,11111222' 
TCOON,ioos:station:TCOON:031:1,2013-11-01T10:48:00Z,28.4073,-96.7122,0.0,1.3,74.0,1.9,'11111222,11111222,11111222' 
TCOON,ioos:station:TCOON:031:1,2013-11-01T10:54:00Z,28.4073,-96.7122,0.0,1.5,60.0,2.1,'1111122,1111122,1111122' 
TCOON,ioos:station:TCOON:031:1,2013-11-01T11:00:00Z,28.4073,-96.7122,0.0,1.3,74.0,2.0,'11111222,11111222,11111222' 
TCOON,ioos:station:TCOON:031:1,2013-11-01T11:06:00Z,28.4073,-96.7122,0.0,1.4,71.0,1.8,'11111222,11111222,11111222' 
TCOON,ioos:station:TCOON:031:1,2013-11-01T11:12:00Z,28.4073,-96.7122,0.0,1.3,60.0,1.7,'11111222,11111222,11111222' 
TCOON,ioos:station:TCOON:031:1,2013-11-01T11:18:00Z,28.4073,-96.7122,0.0,1.5,61.0,1.8,'11111222,11111222,11111222' 
TCOON,ioos:station:TCOON:031:1,2013-11-01T11:24:00Z,28.4073,-96.7122,0.0,1.2,62.0,1.7,'11111222,11111222,11111222' 
TCOON,ioos:station:TCOON:031:1,2013-11-01T11:30:00Z,28.4073,-96.7122,0.0,1.5,46.0,1.7,'11111222,11111222,11111222' 
TCOON,ioos:station:TCOON:031:1,2013-11-01T11:36:00Z,28.4073,-96.7122,0.0,1.4,47.0,1.8,'11111222,11111222,11111222' 
TCOON,ioos:station:TCOON:031:1,2013-11-01T11:42:00Z,28.4073,-96.7122,0.0,1.2,51.0,1.6,'11111222,11111222,11111222' 
TCOON,ioos:station:TCOON:031:1,2013-11-01T11:48:00Z,28.4073,-96.7122,0.0,1.5,60.0,2.1,'1111122,1111122,1111122' 
TCOON,ioos:station:TCOON:031:1,2013-11-01T11:54:00Z,28.4073,-96.7122,0.0,1.6,55.0,2.0,'11111222,11111222,11111222' 
TCOON,ioos:station:TCOON:031:1,2013-11-01T12:00:00Z,28.4073,-96.7122,0.0,1.7,55.0,2.3,'11111222,11111222,11111222' 
TCOON,ioos:station:TCOON:031:1,2013-11-01T12:06:00Z,28.4073,-96.7122,0.0,1.5,47.0,2.3,'11111222,11111222,11111222' 
TCOON,ioos:station:TCOON:031:1,2013-11-01T12:12:00Z,28.4073,-96.7122,0.0,1.8,38.0,2.1,'11111222,11111222,11111222' 
TCOON,ioos:station:TCOON:031:1,2013-11-01T12:18:00Z,28.4073,-96.7122,0.0,1.4,31.0,2.2,'11111222,11111222,11111222' 
TCOON,ioos:station:TCOON:031:1,2013-11-01T12:24:00Z,28.4073,-96.7122,0.0,1.0,21.0,1.4,'11111222,11111222,11111222' 
TCOON,ioos:station:TCOON:031:1,2013-11-01T12:30:00Z,28.4073,-96.7122,0.0,1.5,10.0,1.5,'1111122,1111122,1111122' 
TCOON,ioos:station:TCOON:031:1,2013-11-01T12:36:00Z,28.4073,-96.7122,0.0,1.5,358.0,1.8,'11111222,11111222,11111222' 
TCOON,ioos:station:TCOON:031:1,2013-11-01T12:42:00Z,28.4073,-96.7122,0.0,2.2,6.0,2.6,'11111222,11111222,11111222' 
TCOON,ioos:station:TCOON:031:1,2013-11-01T12:48:00Z,28.4073,-96.7122,0.0,2.1,10.0,2.6,'1111122,1111122,1111122' 
TCOON,ioos:station:TCOON:031:1,2013-11-01T12:54:00Z,28.4073,-96.7122,0.0,2.0,20.0,2.3,'11111222,11111222,11111222' 
TCOON,ioos:station:TCOON:031:1,2013-11-01T13:00:00Z,28.4073,-96.7122,0.0,1.8,34.0,2.2,'11111222,11111222,11111222' 
TCOON,ioos:station:TCOON:031:1,2013-11-01T13:06:00Z,28.4073,-96.7122,0.0,1.8,39.0,2.3,'11111222,11111222,11111222' 
TCOON,ioos:station:TCOON:031:1,2013-11-01T13:12:00Z,28.4073,-96.7122,0.0,2.3,42.0,3.0,'11111222,11111222,11111222' 
TCOON,ioos:station:TCOON:031:1,2013-11-01T13:18:00Z,28.4073,-96.7122,0.0,1.5,35.0,2.6,'11111222,11111222,11111222' 
TCOON,ioos:station:TCOON:031:1,2013-11-01T13:24:00Z,28.4073,-96.7122,0.0,1.0,49.0,1.7,'11111222,11111222,11111222' 
TCOON,ioos:station:TCOON:031:1,2013-11-01T13:30:00Z,28.4073,-96.7122,0.0,1.8,43.0,2.1,'11111222,11111222,11111222' 
TCOON,ioos:station:TCOON:031:1,2013-11-01T13:36:00Z,28.4073,-96.7122,0.0,1.5,50.0,2.1,'1111122,1111122,1111122' 
TCOON,ioos:station:TCOON:031:1,2013-11-01T13:42:00Z,28.4073,-96.7122,0.0,1.7,43.0,2.3,'11111222,11111222,11111222' 
TCOON,ioos:station:TCOON:031:1,2013-11-01T13:48:00Z,28.4073,-96.7122,0.0,1.5,60.0,2.1,'1111122,1111122,1111122' 
TCOON,ioos:station:TCOON:031:1,2013-11-01T13:54:00Z,28.4073,-96.7122,0.0,2.0,58.0,2.7,'11111222,11111222,11111222' 
TCOON,ioos:station:TCOON:031:1,2013-11-01T14:00:00Z,28.4073,-96.7122,0.0,2.1,59.0,2.6,'11111222,11111222,11111222' 
TCOON,ioos:station:TCOON:031:1,2013-11-01T14:06:00Z,28.4073,-96.7122,0.0,1.6,63.0,2.4,'11111222,11111222,11111222' 
TCOON,ioos:station:TCOON:031:1,2013-11-01T14:12:00Z,28.4073,-96.7122,0.0,1.6,63.0,2.4,'11111222,11111222,11111222' 
TCOON,ioos:station:TCOON:031:1,2013-11-01T14:18:00Z,28.4073,-96.7122,0.0,1.3,61.0,2.6,'11111222,11111222,11111222' 
TCOON,ioos:station:TCOON:031:1,2013-11-01T14:24:00Z,28.4073,-96.7122,0.0,1.7,58.0,2.3,'11111222,11111222,11111222' 
TCOON,ioos:station:TCOON:031:1,2013-11-01T14:30:00Z,28.4073,-96.7122,0.0,1.6,51.0,2.1,'11111222,11111222,11111222' 
TCOON,ioos:station:TCOON:031:1,2013-11-01T14:36:00Z,28.4073,-96.7122,0.0,1.5,50.0,2.1,'1111122,1111122,1111122' 
TCOON,ioos:station:TCOON:031:1,2013-11-01T14:42:00Z,28.4073,-96.7122,0.0,1.1,59.0,2.3,'11111222,11111222,11111222' 
TCOON,ioos:station:TCOON:031:1,2013-11-01T14:48:00Z,28.4073,-96.7122,0.0,2.0,64.0,2.5,'11111222,11111222,11111222' 
TCOON,ioos:station:TCOON:031:1,2013-11-01T14:54:00Z,28.4073,-96.7122,0.0,1.5,60.0,2.6,'1111122,1111122,1111122' 
TCOON,ioos:station:TCOON:031:1,2013-11-01T15:00:00Z,28.4073,-96.7122,0.0,2.5,81.0,3.3,'11111222,11111222,11111222' 
TCOON,ioos:station:TCOON:031:1,2013-11-01T15:06:00Z,28.4073,-96.7122,0.0,1.9,83.0,3.4,'11111222,11111222,11111222' 
TCOON,ioos:station:TCOON:031:1,2013-11-01T15:12:00Z,28.4073,-96.7122,0.0,2.5,77.0,3.7,'11111222,11111222,11111222' 
TCOON,ioos:station:TCOON:031:1,2013-11-01T15:18:00Z,28.4073,-96.7122,0.0,2.6,98.0,3.8,'11111222,11111222,11111222' 
TCOON,ioos:station:TCOON:031:1,2013-11-01T15:24:00Z,28.4073,-96.7122,0.0,3.5,111.0,4.8,'11111222,11111222,11111222' 
TCOON,ioos:station:TCOON:031:1,2013-11-01T15:30:00Z,28.4073,-96.7122,0.0,4.2,107.0,6.1,'11111222,11111222,11111222' 
TCOON,ioos:station:TCOON:031:1,2013-11-01T15:36:00Z,28.4073,-96.7122,0.0,5.3,108.0,6.5,'11111222,11111222,11111222' 
TCOON,ioos:station:TCOON:031:1,2013-11-01T15:42:00Z,28.4073,-96.7122,0.0,4.4,103.0,5.8,'11111222,11111222,11111222' 
TCOON,ioos:station:TCOON:031:1,2013-11-01T15:48:00Z,28.4073,-96.7122,0.0,4.6,100.0,6.2,'1111122,1111122,1111122' 
TCOON,ioos:station:TCOON:031:1,2013-11-01T15:54:00Z,28.4073,-96.7122,0.0,4.0,109.0,6.1,'11111222,11111222,11111222' 
TCOON,ioos:station:TCOON:031:1,2013-11-01T16:00:00Z,28.4073,-96.7122,0.0,5.0,102.0,5.8,'11111222,11111222,11111222' 
TCOON,ioos:station:TCOON:031:1,2013-11-01T16:06:00Z,28.4073,-96.7122,0.0,4.3,113.0,5.4,'11111222,11111222,11111222' 
TCOON,ioos:station:TCOON:031:1,2013-11-01T16:12:00Z,28.4073,-96.7122,0.0,4.9,129.0,5.9,'11111222,11111222,11111222' 
TCOON,ioos:station:TCOON:031:1,2013-11-01T16:18:00Z,28.4073,-96.7122,0.0,4.3,118.0,6.4,'11111222,11111222,11111222' 
TCOON,ioos:station:TCOON:031:1,2013-11-01T16:24:00Z,28.4073,-96.7122,0.0,4.8,108.0,6.0,'11111222,11111222,11111222' 
TCOON,ioos:station:TCOON:031:1,2013-11-01T16:30:00Z,28.4073,-96.7122,0.0,4.6,124.0,6.0,'11111222,11111222,11111222' 
TCOON,ioos:station:TCOON:031:1,2013-11-01T16:36:00Z,28.4073,-96.7122,0.0,3.2,107.0,5.7,'11111222,11111222,11111222' 
TCOON,ioos:station:TCOON:031:1,2013-11-01T16:42:00Z,28.4073,-96.7122,0.0,5.7,119.0,7.2,'11111222,11111222,11111222' 
TCOON,ioos:station:TCOON:031:1,2013-11-01T16:48:00Z,28.4073,-96.7122,0.0,5.1,120.0,7.2,'1111122,1111122,1111122' 
TCOON,ioos:station:TCOON:031:1,2013-11-01T16:54:00Z,28.4073,-96.7122,0.0,5.5,125.0,7.3,'11111222,11111222,11111222' 
TCOON,ioos:station:TCOON:031:1,2013-11-01T17:00:00Z,28.4073,-96.7122,0.0,4.9,121.0,7.7,'11111222,11111222,11111222' 
TCOON,ioos:station:TCOON:031:1,2013-11-01T17:06:00Z,28.4073,-96.7122,0.0,5.3,114.0,7.1,'11111222,11111222,11111222' 
TCOON,ioos:station:TCOON:031:1,2013-11-01T17:12:00Z,28.4073,-96.7122,0.0,6.0,129.0,6.8,'11111222,11111222,11111222' 
TCOON,ioos:station:TCOON:031:1,2013-11-01T17:18:00Z,28.4073,-96.7122,0.0,4.7,121.0,6.9,'11111222,11111222,11111222' 
TCOON,ioos:station:TCOON:031:1,2013-11-01T17:24:00Z,28.4073,-96.7122,0.0,5.1,110.0,7.2,'1111122,1111122,1111122' 
TCOON,ioos:station:TCOON:031:1,2013-11-01T17:30:00Z,28.4073,-96.7122,0.0,5.7,111.0,7.6,'11111222,11111222,11111222' 
TCOON,ioos:station:TCOON:031:1,2013-11-01T17:36:00Z,28.4073,-96.7122,0.0,4.5,112.0,6.7,'11111222,11111222,11111222' 
TCOON,ioos:station:TCOON:031:1,2013-11-01T17:42:00Z,28.4073,-96.7122,0.0,5.4,115.0,6.6,'11111222,11111222,11111222' 
TCOON,ioos:station:TCOON:031:1,2013-11-01T17:48:00Z,28.4073,-96.7122,0.0,5.1,100.0,6.7,'1111122,1111122,1111122' 
TCOON,ioos:station:TCOON:031:1,2013-11-01T17:54:00Z,28.4073,-96.7122,0.0,4.4,123.0,6.1,'11111222,11111222,11111222' 
TCOON,ioos:station:TCOON:031:1,2013-11-01T18:00:00Z,28.4073,-96.7122,0.0,5.3,109.0,7.1,'11111222,11111222,11111222' 
TCOON,ioos:station:TCOON:031:1,2013-11-01T18:06:00Z,28.4073,-96.7122,0.0,4.5,131.0,6.7,'11111222,11111222,11111222' 
TCOON,ioos:station:TCOON:031:1,2013-11-01T18:12:00Z,28.4073,-96.7122,0.0,4.5,125.0,6.2,'11111222,11111222,11111222' 
TCOON,ioos:station:TCOON:031:1,2013-11-01T18:18:00Z,28.4073,-96.7122,0.0,4.4,111.0,6.1,'11111222,11111222,11111222' 
TCOON,ioos:station:TCOON:031:1,2013-11-01T18:24:00Z,28.4073,-96.7122,0.0,5.0,118.0,6.6,'11111222,11111222,11111222' 
TCOON,ioos:station:TCOON:031:1,2013-11-01T18:30:00Z,28.4073,-96.7122,0.0,4.1,113.0,6.6,'11111222,11111222,11111222' 
TCOON,ioos:station:TCOON:031:1,2013-11-01T18:36:00Z,28.4073,-96.7122,0.0,5.7,120.0,6.7,'1111122,1111122,1111122' 
TCOON,ioos:station:TCOON:031:1,2013-11-01T18:42:00Z,28.4073,-96.7122,0.0,4.7,128.0,5.9,'11111222,11111222,11111222' 
TCOON,ioos:station:TCOON:031:1,2013-11-01T18:48:00Z,28.4073,-96.7122,0.0,4.1,140.0,6.2,'1111122,1111122,1111122' 
TCOON,ioos:station:TCOON:031:1,2013-11-01T18:54:00Z,28.4073,-96.7122,0.0,5.3,144.0,6.8,'11111222,11111222,11111222' 
TCOON,ioos:station:TCOON:031:1,2013-11-01T19:00:00Z,28.4073,-96.7122,0.0,4.2,133.0,7.3,'11111222,11111222,11111222' 
TCOON,ioos:station:TCOON:031:1,2013-11-01T19:06:00Z,28.4073,-96.7122,0.0,6.1,140.0,7.3,'11111222,11111222,11111222' 
TCOON,ioos:station:TCOON:031:1,2013-11-01T19:12:00Z,28.4073,-96.7122,0.0,4.4,129.0,7.1,'11111222,11111222,11111222' 
TCOON,ioos:station:TCOON:031:1,2013-11-01T19:18:00Z,28.4073,-96.7122,0.0,5.0,132.0,7.2,'11111222,11111222,11111222' 
TCOON,ioos:station:TCOON:031:1,2013-11-01T19:24:00Z,28.4073,-96.7122,0.0,6.0,144.0,7.0,'11111222,11111222,11111222' 
TCOON,ioos:station:TCOON:031:1,2013-11-01T19:30:00Z,28.4073,-96.7122,0.0,5.4,146.0,6.8,'11111222,11111222,11111222' 
TCOON,ioos:station:TCOON:031:1,2013-11-01T19:36:00Z,28.4073,-96.7122,0.0,6.2,140.0,7.2,'1111122,1111122,1111122' 
TCOON,ioos:station:TCOON:031:1,2013-11-01T19:42:00Z,28.4073,-96.7122,0.0,5.5,141.0,7.2,'11111222,11111222,11111222' 
TCOON,ioos:station:TCOON:031:1,2013-11-01T19:48:00Z,28.4073,-96.7122,0.0,5.1,140.0,8.1,'11111222,11111222,11111222' 
TCOON,ioos:station:TCOON:031:1,2013-11-01T19:54:00Z,28.4073,-96.7122,0.0,5.4,144.0,7.1,'11111222,11111222,11111222' 
TCOON,ioos:station:TCOON:031:1,2013-11-01T20:00:00Z,28.4073,-96.7122,0.0,5.8,152.0,7.9,'11111222,11111222,11111222' 
TCOON,ioos:station:TCOON:031:1,2013-11-01T20:06:00Z,28.4073,-96.7122,0.0,5.2,143.0,7.2,'11111222,11111222,11111222' 
TCOON,ioos:station:TCOON:031:1,2013-11-01T20:12:00Z,28.4073,-96.7122,0.0,4.3,156.0,6.9,'11111222,11111222,11111222' 
TCOON,ioos:station:TCOON:031:1,2013-11-01T20:18:00Z,28.4073,-96.7122,0.0,5.4,157.0,6.3,'11111222,11111222,11111222' 
TCOON,ioos:station:TCOON:031:1,2013-11-01T20:24:00Z,28.4073,-96.7122,0.0,5.6,149.0,7.2,'11111222,11111222,11111222' 
TCOON,ioos:station:TCOON:031:1,2013-11-01T20:30:00Z,28.4073,-96.7122,0.0,4.9,153.0,6.6,'11111222,11111222,11111222' 